Location: Briis
(48.6240°N, 2.1211°E)
Time: 06:47:23
(UTC+00:00)

Landsat 5 - Pass Details

Date: 25 September 2020
Orbit: 528 x 655 km, 98.2° (Epoch: 18 October)

Event Time Altitude Azimuth Distance (km) Brightness Sun altitude
Rises 03:49:28 0° 175° (S) 2,966 6.9 -19.1°
Reaches altitude 10° 03:51:43 10° 179° (S) 2,055 6.0 -18.8°
Maximum altitude 03:56:09 58° 258° (WSW) 753 3.6 -18.1°
Drops below altitude 10° 04:00:32 10° 339° (NNW) 2,029 6.2 -17.4°
Sets 04:02:45 0° 343° (NNW) 2,925 7.1 -17.1°
